Weather History for Johnstown, PA

Change the Weather History Date:

Saturday, June 29, 2013

  Actual Average Record
Temperature  
Mean Temperature 66 °F 68 °F  
Max Temperature 73 °F 77 °F 98 °F (1934)
Min Temperature 59 °F 59 °F 44 °F (1919)
Degree Days  
Heating Degree Days 0 1  
Month to date heating degree days 78  
Since 1 June heating degree days 78  
Since 1 July heating degree days 6687  
Cooling Degree Days 0 4  
Month to date cooling degree days 71  
Year to date cooling degree days 95  
Since 1 June cooling degree days 71  
Growing Degree Days 16 (Base 50)    
Moisture  
Dew Point 58 °F    
Average Humidity 81    
Maximum Humidity 96    
Minimum Humidity 59    
Precipitation  
Precipitation 0.00 in 0.11 in 2.24 in (1924)
Month to date precipitation 3.95  
Year to date precipitation 20.59  
Sea Level Pressure  
Sea Level Pressure 29.64 in    
Wind  
Wind Speed 7 mph (SW)    
Max Wind Speed 13 mph    
Max Gust Speed 21 mph    
Visibility 9 miles    
Events Rain , Thunderstorm    
T = Trace of Precipitation, MM = Missing Value Source: NWS Daily Summary

Daily Weather History Graph

Daily Weather History Graph

Search for Another Location

Airport:

Trip Planner

Search our weather history database for the weather conditions in past years. The results will help you decide how hot, cold, wet, or windy it might be!

Date:

Astronomy

Jun. 29, 2013 Rise Set
Actual Time 5:48 AM EDT 8:49 PM EDT
Civil Twilight 5:15 AM EDT 9:22 PM EDT
Nautical Twilight 4:33 AM EDT 10:04 PM EDT
Astronomical Twilight 3:44 AM EDT 10:52 PM EDT
Moon 12:16 AM EDT (6/29) 12:59 PM EDT (6/29)
Length of Visible Light 16h 06m
Length of Day
15h 00m
Waning Gibbous, 56% of the Moon is Illuminated
Jun 29
Waning Gibbous
Jun 30
Last Quarter
Jul 8
New
Jul 15
First Quarter
Jul 22
Full

Hourly Weather History & Observations

Time (EDT) Temp. Dew Point Humidity Pressure Visibility Wind Dir Wind Speed Gust Speed Precip Events Conditions
12:41 AM 59.0 °F 57.2 °F 94% 29.62 in 10.0 mi SSW 5.8 mph - N/A   Mostly Cloudy
12:54 AM 59.0 °F 57.0 °F 93% 29.58 in 10.0 mi South 5.8 mph - N/A   Partly Cloudy
1:54 AM 59.0 °F 57.0 °F 93% 29.57 in 10.0 mi SSW 5.8 mph - N/A   Clear
2:38 AM 60.8 °F 57.2 °F 88% 29.60 in 10.0 mi SSW 8.1 mph - N/A   Mostly Cloudy
2:54 AM 59.0 °F 57.9 °F 96% 29.57 in 7.0 mi SW 5.8 mph - N/A   Mostly Cloudy
3:13 AM 59.0 °F 57.2 °F 94% 29.60 in 5.0 mi SW 6.9 mph - N/A   Mostly Cloudy
3:54 AM 59.0 °F 57.9 °F 96% 29.57 in 5.0 mi SW 5.8 mph - N/A   Mostly Cloudy
4:10 AM 59.0 °F 57.2 °F 94% 29.60 in 3.0 mi WSW 8.1 mph - N/A   Overcast
4:19 AM 59.0 °F 57.2 °F 94% 29.60 in 2.5 mi WSW 8.1 mph - N/A   Overcast
4:38 AM 59.0 °F 57.2 °F 94% 29.60 in 6.0 mi WSW 11.5 mph - N/A   Overcast
4:46 AM 59.0 °F 57.2 °F 94% 29.60 in 9.0 mi WSW 11.5 mph - N/A   Overcast
4:54 AM 59.0 °F 57.0 °F 93% 29.57 in 9.0 mi WSW 10.4 mph - N/A   Overcast
5:54 AM 59.0 °F 57.0 °F 93% 29.59 in 10.0 mi WSW 8.1 mph - N/A   Overcast
6:47 AM 59.0 °F 57.2 °F 94% 29.64 in 8.0 mi SW 8.1 mph - N/A   Overcast
6:54 AM 59.0 °F 57.0 °F 93% 29.62 in 8.0 mi WSW 8.1 mph - N/A   Overcast
7:54 AM 59.0 °F 57.0 °F 93% 29.64 in 7.0 mi SW 6.9 mph - N/A   Overcast
8:49 AM 60.8 °F 57.2 °F 88% 29.66 in 10.0 mi SW 6.9 mph - N/A   Overcast
8:54 AM 61.0 °F 57.0 °F 87% 29.65 in 10.0 mi SW 5.8 mph - N/A   Overcast
9:39 AM 64.4 °F 59.0 °F 83% 29.67 in 10.0 mi WSW 5.8 mph - N/A   Mostly Cloudy
9:54 AM 64.0 °F 57.9 °F 80% 29.65 in 10.0 mi WSW 8.1 mph - N/A   Mostly Cloudy
10:29 AM 66.2 °F 57.2 °F 73% 29.67 in 10.0 mi West 9.2 mph - N/A   Scattered Clouds
10:54 AM 66.9 °F 57.9 °F 73% 29.65 in 10.0 mi WSW 10.4 mph - N/A   Mostly Cloudy
11:27 AM 68.0 °F 57.2 °F 68% 29.67 in 10.0 mi SW 8.1 mph - N/A   Scattered Clouds
11:54 AM 71.1 °F 57.9 °F 63% 29.65 in 10.0 mi WSW 11.5 mph 18.4 mph N/A   Mostly Cloudy
12:54 PM 72.0 °F 57.0 °F 59% 29.64 in 10.0 mi SW 11.5 mph - N/A   Mostly Cloudy
1:54 PM 70.0 °F 57.0 °F 63% 29.63 in 10.0 mi WSW 8.1 mph - N/A   Mostly Cloudy
2:54 PM 71.1 °F 60.1 °F 68% 29.65 in 10.0 mi West 9.2 mph 16.1 mph N/A   Mostly Cloudy
3:36 PM 69.8 °F 57.2 °F 64% 29.69 in 10.0 mi West 12.7 mph 20.7 mph 0.00 in Rain , Thunderstorm Light Rain
3:54 PM 68.0 °F 59.0 °F 73% 29.66 in 10.0 mi South 8.1 mph - 0.00 in Rain , Thunderstorm Light Thunderstorms and Rain
4:06 PM 68.0 °F 60.8 °F 78% 29.69 in 10.0 mi SSE 5.8 mph - 0.00 in   Mostly Cloudy
4:54 PM 71.1 °F 57.0 °F 61% 29.66 in 10.0 mi SW 6.9 mph - 0.00 in   Partly Cloudy
5:54 PM 72.0 °F 57.9 °F 61% 29.64 in 10.0 mi West 5.8 mph - 0.00 in   Scattered Clouds
6:54 PM 71.1 °F 60.1 °F 68% 29.67 in 10.0 mi SSE 6.9 mph - N/A   Mostly Cloudy
7:21 PM 69.8 °F 60.8 °F 73% 29.71 in 10.0 mi South 4.6 mph - N/A Thunderstorm Mostly Cloudy
7:41 PM 69.8 °F 59.0 °F 68% 29.72 in 10.0 mi SSW 5.8 mph - N/A   Mostly Cloudy
7:54 PM 69.1 °F 59.0 °F 70% 29.69 in 10.0 mi SSW 8.1 mph - N/A   Mostly Cloudy
8:54 PM 68.0 °F 59.0 °F 73% 29.70 in 10.0 mi SSW 3.5 mph - N/A   Scattered Clouds
9:54 PM 66.9 °F 57.9 °F 73% 29.73 in 10.0 mi SSW 4.6 mph - N/A   Clear
10:54 PM 64.9 °F 57.9 °F 78% 29.74 in 10.0 mi SW 3.5 mph - N/A   Scattered Clouds
11:54 PM 63.0 °F 57.9 °F 84% 29.73 in 10.0 mi Calm Calm - N/A   Clear